Weather History for KMMT - January, 2012

Change the Weather History Date:

Sunday, January 29, 2012

  Actual Average Record
Temperature  
Mean Temperature 44 °F -  
Max Temperature 57 °F 53 °F 80 °F (2002)
Min Temperature 31 °F 34 °F 19 °F (2014)
Degree Days  
Heating Degree Days 20    
Moisture  
Dew Point 20 °F    
Average Humidity 45    
Maximum Humidity 77    
Minimum Humidity 15    
Precipitation  
Precipitation 0.00 in - - ()
Sea Level Pressure  
Sea Level Pressure 30.33 in    
Wind  
Wind Speed 4 mph (NNW)    
Max Wind Speed 13 mph    
Max Gust Speed -    
Visibility 10 miles    
Events      
Averages and records for this station are not official NWS values.
T = Trace of Precipitation, MM = Missing Value Source: NWS Daily Summary

Daily Weather History Graph

Daily Weather History Graph

Search for Another Location

Airport or City:

Trip Planner

Search our weather history database for the weather conditions in past years. The results will help you decide how hot, cold, wet, or windy it might be!

Date:

Astronomy

Jan. 29, 2012 Rise Set
Actual Time 7:22 AM EST 5:50 PM EST
Civil Twilight 6:56 AM EST 6:16 PM EST
Nautical Twilight 6:25 AM EST 6:46 PM EST
Astronomical Twilight 5:56 AM EST 7:16 PM EST
Moon 10:34 AM EST No Moon Set
Length of Visible Light 11h 20m
Length of Day
10h 28m
Waxing Crescent, 36% of the Moon is Illuminated
Jan 29
Waxing Crescent
Jan 30
First Quarter
Feb 7
Full
Feb 14
Last Quarter
Feb 21
New

Hourly Weather History & Observations

Time (EST) Temp. Windchill Dew Point Humidity Pressure Visibility Wind Dir Wind Speed Gust Speed Precip Events Conditions
12:55 AM 44.6 °F 43.1 °F 31.3 °F 60% 30.24 in 10.0 mi NNW 3.5 mph - N/A   Clear
1:55 AM 41.9 °F 40.0 °F 30.4 °F 64% 30.25 in 10.0 mi NW 3.5 mph - N/A   Clear
2:55 AM 35.4 °F 31.5 °F 28.9 °F 77% 30.28 in 10.0 mi NW 4.6 mph - N/A   Clear
3:55 AM 36.5 °F 32.7 °F 26.2 °F 66% 30.29 in 10.0 mi NNW 4.6 mph - N/A   Clear
4:55 AM 41.7 °F 37.3 °F 23.7 °F 49% 30.30 in 10.0 mi North 6.9 mph - N/A   Clear
5:55 AM 38.1 °F 34.6 °F 23.7 °F 56% 30.32 in 10.0 mi North 4.6 mph - N/A   Clear
6:55 AM 39.0 °F - 21.4 °F 49% 30.35 in 10.0 mi Calm Calm - N/A   Clear
7:55 AM 38.1 °F 35.7 °F 21.6 °F 51% 30.38 in 10.0 mi North 3.5 mph - N/A   Scattered Clouds
8:55 AM 43.3 °F 40.7 °F 20.1 °F 40% 30.40 in 10.0 mi NNE 4.6 mph - N/A   Partly Cloudy
9:55 AM 47.3 °F - 18.9 °F 32% 30.41 in 10.0 mi NE 8.1 mph - N/A   Partly Cloudy
10:55 AM 49.8 °F - 14.5 °F 25% 30.41 in 10.0 mi NE 8.1 mph - N/A   Partly Cloudy
11:55 AM 52.3 °F - 14.2 °F 22% 30.40 in 10.0 mi Calm Calm - N/A   Partly Cloudy
12:55 PM 54.9 °F - 12.4 °F 19% 30.35 in 10.0 mi Variable 3.5 mph - N/A   Partly Cloudy
1:55 PM 56.7 °F - 9.7 °F 15% 30.32 in 10.0 mi Variable 5.8 mph - N/A   Partly Cloudy
2:55 PM 57.6 °F - 10.9 °F 16% 30.30 in 10.0 mi WNW 12.7 mph - N/A   Partly Cloudy
3:55 PM 57.6 °F - 10.4 °F 15% 30.30 in 10.0 mi WNW 11.5 mph - N/A   Partly Cloudy
4:55 PM 56.3 °F - 13.3 °F 18% 30.30 in 10.0 mi West 8.1 mph - N/A   Clear
5:55 PM 50.7 °F - 15.1 °F 24% 30.31 in 10.0 mi WNW 4.6 mph - N/A   Clear
6:55 PM 44.6 °F 41.4 °F 19.4 °F 37% 30.34 in 10.0 mi West 5.8 mph - N/A   Clear
7:55 PM 39.6 °F - 23.7 °F 53% 30.34 in 10.0 mi Calm Calm - N/A   Clear
8:55 PM 35.4 °F - 25.3 °F 67% 30.34 in 10.0 mi Calm Calm - N/A   Clear
9:55 PM 32.0 °F - 24.4 °F 74% 30.35 in 10.0 mi Calm Calm - N/A   Clear
10:55 PM 32.9 °F - 25.2 °F 73% 30.35 in 10.0 mi Calm Calm - N/A   Clear
11:55 PM 31.6 °F - 21.9 °F 67% 30.35 in 10.0 mi Calm Calm - N/A   Clear